Terminal Aerodrome Forecast
Issued by NWS

Home | Current Version | Previous Version | Text Only | Print | Product List | Glossary On
Versions: 1 2 3 4 5 6 7 8 9 10 11 12 13 14 15 16 17 18 19 20 21 22 23 24 25 26 27 28 29 30 31 32 33 34 35 36 37 38 39 40 41 42 43 44 45 46 47 48 49 50
000
FTUS45 KGJT 010714 AAA
TAFTEX
TAF AMD
KTEX 010714Z 0107/0206 14004KT P6SM SCT010 SCT030
     FM011000 14005KT P6SM VCFG FEW010 SCT040
     FM011800 25006KT P6SM SCT040 SCT090
     FM020200 13003KT P6SM BKN080=

USA.gov is the U.S. government's official web portal to all federal, state and local government web resources and services.